Location: Caltech
(34.1382°N, 118.1253°W)
Time: 14:54:32
(UTC-07:00)

Hamsat - Visible Passes

Search period start: 18 August 2017 00:00
Search period end: 28 August 2017 00:00
Orbit: 586 x 617 km, 97.7° (Epoch: 18 August)

Date Brightness Start Highest point End Pass type
(mag) Time Alt. Az. Time Alt. Az. Time Alt. Az.
18 Aug ? 04:41:35 10° NNE 04:45:52 67° E 04:49:24 15° S visible
19 Aug ? 04:53:14 10° N 04:57:34 86° WNW 05:01:09 15° SSW visible
20 Aug ? 05:04:58 10° N 05:09:13 62° WNW 05:12:54 13° SSW visible
21 Aug ? 03:43:07 10° ENE 03:44:56 12° E 03:46:44 10° ESE visible
21 Aug ? 05:16:47 10° N 05:20:52 44° WNW 05:24:38 12° SW visible
22 Aug ? 03:53:52 10° NE 03:56:42 17° E 03:59:32 10° SE visible
22 Aug ? 05:28:41 10° N 05:32:29 32° WNW 05:36:17 10° SW visible
23 Aug ? 04:05:01 10° NE 04:08:28 23° E 04:11:20 13° SE visible
23 Aug ? 05:40:41 10° NNW 05:44:06 23° WNW 05:47:29 10° WSW visible
24 Aug ? 04:16:21 10° NNE 04:20:13 32° E 04:23:04 16° SSE visible
25 Aug ? 04:27:49 10° NNE 04:31:56 45° E 04:34:49 18° SSE visible
26 Aug ? 04:39:23 10° NNE 04:43:38 64° E 04:46:33 19° S visible
27 Aug ? 04:51:01 10° NNE 04:55:19 90° ESE 04:58:17 19° SSW visible
